Lapse_Rate
6.3 6.4 6.5 6.6 6.6 6.6 6.7 6.8 6.8 6.8 6.7 6.6 6.7 6.7 6.8 6.8 6.9 6.8 6.6 7.1 6.8 6.9 7.0 7.0 7.0 7.0 7.1 6.8 6.3 6.6 6.7 6.8 7.5 7.8 8.1 8.5 8.4 8.5 8.5 8.9 9.0 8.7 8.6 8.3 7.9
6.2 6.2 6.2 6.2 6.2 6.3 6.3 6.4 6.4 6.3 6.3 6.3 6.2 6.3 6.4 6.6 6.7 6.5 7.0 6.9 7.0 6.9 6.8 6.7 6.8 6.8 6.6 6.8 6.6 6.7 6.9 6.9 7.5 8.1 8.3 8.2 8.2 8.3 8.8 8.8 8.9 8.9 8.2 7.9 7.9
6.0 6.0 5.9 6.0 6.0 6.0 6.0 6.0 6.1 6.2 6.3 6.2 6.2 6.3 6.3 6.5 6.4 5.5 6.7 6.7 6.7 6.8 6.7 6.7 6.7 6.6 5.9 6.3 6.5 6.8 6.7 7.3 7.7 8.1 8.2 7.8 7.7 8.3 8.6 9.2 8.6 9.0 8.2 8.0 8.2
6.1 6.1 6.1 6.1 6.1 6.1 6.1 6.2 6.1 6.1 6.2 6.2 6.2 6.4 6.3 6.3 5.8 6.9 6.6 6.6 6.5 6.6 6.7 6.5 6.5 6.3 5.8 6.4 6.9 7.1 6.8 6.9 7.3 8.1 8.9 7.6 7.7 8.1 8.5 8.5 8.5 9.2 9.1 8.6 8.2
6.3 6.3 6.3 6.3 6.3 6.3 6.2 6.1 6.1 6.2 6.1 6.1 6.1 6.1 6.1 6.1 5.4 6.4 6.3 6.4 6.4 6.3 6.2 6.2 5.9 5.6 5.9 6.4 7.0 6.7 6.8 7.3 7.5 7.8 7.9 7.8 7.3 7.7 8.2 8.5 8.4 8.7 8.8 8.4 7.8
6.5 6.5 6.5 6.5 6.4 6.3 6.3 6.3 6.3 6.2 6.2 6.2 6.3 6.3 6.2 5.5 5.9 5.9 6.0 6.2 6.3 6.3 6.1 5.6 5.3 5.4 5.6 6.1 6.4 6.9 7.0 7.1 7.2 7.7 7.6 7.3 6.8 7.7 7.8 8.1 8.3 8.3 8.4 8.4 8.0
6.6 6.6 6.6 6.5 6.4 6.2 6.2 6.2 6.3 6.3 6.1 6.1 6.1 6.2 6.0 5.2 5.8 5.5 5.3 5.1 5.7 6.0 6.0 5.0 5.1 5.2 5.4 5.7 6.0 6.2 6.4 6.6 7.1 7.1 7.2 7.5 7.1 7.1 7.3 8.0 8.3 8.3 8.3 8.2 7.9
6.3 6.3 6.3 6.3 6.2 6.0 6.0 6.0 6.1 6.1 6.0 6.0 5.9 5.7 5.1 5.5 5.4 5.0 5.3 4.8 4.3 4.9 5.5 5.4 5.5 5.2 5.1 5.5 5.7 6.0 6.4 6.4 6.2 7.1 7.1 7.7 7.0 6.7 7.4 7.6 8.1 8.3 8.3 8.3 8.2
6.1 6.2 6.1 6.1 6.0 5.9 5.8 5.7 5.7 5.7 5.7 5.6 5.7 5.7 5.0 4.8 4.6 5.1 5.2 5.0 5.0 4.8 4.4 5.1 5.0 4.7 5.1 5.5 5.8 6.1 6.2 6.8 6.9 7.1 7.4 8.0 7.1 6.6 7.3 7.7 8.2 8.3 8.5 8.4 8.4
6.2 6.3 6.3 6.2 6.2 6.1 6.0 5.8 5.7 5.7 5.8 5.6 5.7 5.4 5.2 4.9 5.1 5.3 4.9 4.8 4.5 4.9 4.6 4.6 4.8 5.1 5.7 5.9 6.3 6.9 7.3 7.3 7.2 7.5 7.9 8.0 7.5 6.9 6.9 7.6 7.9 8.2 8.0 8.2 8.3
6.0 6.1 6.2 6.1 6.1 6.0 5.8 5.9 5.1 5.2 5.4 5.0 5.3 5.3 5.4 5.3 5.2 4.6 4.8 4.7 4.9 4.9 5.2 5.5 5.6 6.0 6.6 6.7 6.4 6.6 6.8 7.1 7.6 7.9 8.6 8.4 7.8 7.1 7.4 7.3 7.6 7.9 8.1 8.0 7.9
5.8 6.0 6.1 6.0 5.9 5.8 5.7 5.4 5.6 5.3 5.8 5.2 5.0 5.7 5.6 5.5 5.3 5.2 4.9 5.0 5.2 5.4 5.7 5.9 6.0 6.1 6.1 6.0 5.9 6.1 6.4 6.5 6.8 7.2 9.0 8.3 7.8 7.2 7.6 7.8 7.5 7.4 7.7 7.9 7.7
6.0 6.0 6.0 6.0 5.9 5.7 5.5 5.3 5.3 5.3 5.1 5.3 5.1 5.2 5.4 5.2 5.3 5.4 5.3 5.4 5.6 5.8 6.0 6.2 6.3 6.6 6.2 5.8 5.7 5.9 6.0 6.2 6.6 7.0 8.1 7.1 7.2 7.0 7.4 7.4 7.3 7.2 7.2 7.2 7.3
6.2 6.1 6.1 6.0 5.9 5.6 5.2 5.5 5.5 5.4 5.1 5.6 5.5 5.6 5.4 5.7 5.8 5.4 5.7 5.6 5.9 6.1 6.4 6.4 6.5 6.8 6.7 6.5 6.5 6.1 6.6 6.3 6.2 6.6 6.9 7.2 8.0 7.2 7.2 7.2 7.0 7.2 7.1 6.9 6.8
6.2 6.2 6.3 6.0 5.7 4.7 5.3 5.5 5.5 5.5 7.3 6.0 5.9 5.8 5.8 6.0 6.0 6.3 6.2 6.2 6.5 6.7 7.0 7.3 8.1 9.1 9.1 9.0 9.1 8.2 8.0 7.8 7.1 7.2 7.6 7.5 8.4 7.1 7.4 7.5 7.3 7.3 7.2 7.1 6.8
6.5 6.3 6.2 6.1 5.9 5.5 5.5 5.6 5.5 5.4 7.2 6.4 6.3 6.3 6.5 7.0 6.8 7.1 7.1 7.4 7.7 8.1 9.0 9.0 9.2 8.5 9.1 9.3 9.3 9.3 9.4 9.3 9.3 9.2 10.1 7.7 8.6 7.5 7.3 7.6 7.8 7.6 7.5 7.4 7.3
6.6 6.4 6.2 6.1 5.2 5.4 5.3 4.9 5.4 6.9 6.4 6.9 6.8 6.8 7.0 7.6 7.6 8.0 8.7 9.2 9.4 9.2 9.3 9.0 9.0 8.3 7.8 9.1 9.4 9.4 9.4 9.6 9.4 9.5 9.5 9.1 9.3 9.2 7.6 8.3 8.8 8.3 7.8 7.5 7.4
6.7 6.6 6.3 6.1 5.8 5.6 5.3 5.2 6.3 6.9 7.0 6.7 6.6 6.9 7.7 7.8 8.0 9.2 9.3 9.4 9.3 9.3 9.3 8.6 8.3 7.8 7.6 8.6 9.2 8.9 9.2 9.5 9.0 9.3 9.7 9.4 9.3 9.1 8.9 9.4 8.9 7.5 7.1 7.2 7.1
6.4 6.6 6.5 6.1 5.8 5.6 4.8 6.0 6.6 6.7 6.2 6.2 6.6 7.7 8.4 9.1 8.3 9.1 9.2 9.4 9.1 9.4 9.2 8.7 8.4 8.4 8.9 8.6 8.0 9.1 9.2 9.2 9.3 8.8 8.8 8.3 8.6 9.5 9.2 9.4 8.4 7.5 7.3 7.0 6.7
6.0 6.2 5.0 5.8 5.8 5.6 5.2 5.9 6.3 5.9 5.9 6.2 6.7 7.4 8.1 8.0 8.0 9.1 9.2 9.1 8.6 9.2 9.2 8.9 8.3 8.8 9.2 8.5 8.5 8.3 8.8 8.9 7.3 8.8 9.0 9.1 9.2 9.3 9.3 9.3 8.6 7.9 7.0 6.8 6.6
5.7 5.5 5.9 5.7 5.6 5.0 5.4 6.4 6.2 5.7 5.7 6.1 6.9 7.4 7.7 7.4 7.6 7.7 8.0 8.5 8.3 8.6 8.5 9.1 8.7 8.6 9.1 9.0 8.5 6.8 7.6 7.8 8.0 8.0 8.6 9.3 9.0 9.5 9.5 8.9 9.1 7.7 6.8 6.7 6.3
5.5 5.1 5.8 5.7 5.7 5.4 5.9 5.8 5.6 5.7 5.8 6.2 6.5 7.1 7.0 7.1 6.9 7.2 7.6 8.6 7.7 7.9 8.1 8.3 7.9 8.2 8.6 9.1 8.9 9.2 8.4 8.0 7.1 7.4 9.1 9.0 7.9 8.7 9.2 9.3 8.7 7.1 6.4 6.6 6.0
5.7 5.6 5.6 5.7 5.3 5.6 5.7 5.9 6.0 5.9 6.0 6.3 6.3 6.7 6.4 6.4 6.4 7.0 7.3 7.7 7.4 7.1 7.2 7.1 7.6 7.8 8.5 9.4 9.3 9.3 9.0 8.6 8.4 7.9 7.5 7.2 6.9 7.7 8.7 8.5 7.0 6.1 6.4 6.4 6.2
5.5 4.9 5.0 5.4 5.2 5.2 5.5 5.8 6.0 5.9 6.1 6.0 6.0 6.0 6.2 6.6 6.8 6.7 7.0 7.2 6.5 6.6 6.7 6.9 6.9 7.3 8.1 8.8 7.2 7.2 7.8 8.9 8.1 7.3 8.1 7.9 7.3 6.2 8.2 8.9 8.4 6.2 5.9 6.6 6.3
4.5 4.7 5.2 5.1 5.0 4.8 4.9 5.6 6.1 6.2 6.1 5.9 6.2 6.2 6.4 6.0 6.4 6.7 6.8 6.7 6.4 6.3 6.4 6.2 6.3 7.1 7.5 7.8 8.9 8.6 9.0 9.3 9.0 8.4 8.4 8.6 8.2 5.9 6.4 7.4 8.4 6.1 5.8 6.6 6.2
4.6 5.0 4.4 5.4 4.4 4.6 4.7 5.4 6.1 6.2 6.1 6.2 6.2 6.3 5.8 5.7 5.8 5.8 6.0 6.3 6.4 6.7 6.4 6.4 6.3 6.6 7.0 7.8 8.4 9.3 9.4 9.4 9.4 8.4 9.2 9.2 8.9 8.3 7.2 7.8 7.6 6.4 6.3 6.4 6.3
4.9 5.0 5.1 5.0 4.6 4.8 4.6 4.8 5.4 5.1 5.6 6.0 5.9 5.8 6.1 6.5 6.6 6.4 6.4 6.9 6.4 6.6 6.5 6.4 6.2 6.6 7.4 8.0 8.8 9.2 9.4 9.4 9.4 8.9 8.7 8.6 9.1 9.2 9.0 8.0 7.6 6.4 6.0 5.8 6.1
Wind_Speed
16 17 17 17 18 19 19 19 19 19 19 19 19 19 19 20 25 20 10 8 10 17 17 15 15 14 14 20 23 20 17 19 24 23 19 12 19 16 17 19 7 11 4 9 14
17 17 17 18 18 18 19 19 19 19 19 20 20 21 20 18 18 9 9 7 11 17 12 11 15 16 16 17 20 22 17 28 23 22 17 13 15 18 22 14 15 16 8 4 7
18 18 18 18 19 19 20 20 20 20 21 20 20 20 20 18 11 11 10 6 11 15 15 10 14 19 23 21 23 27 28 26 25 24 21 14 20 21 23 18 21 18 13 8 4
18 19 19 19 19 20 19 20 20 20 20 19 18 18 19 14 2 8 5 8 12 12 12 13 13 18 23 27 26 27 33 30 30 28 17 18 20 25 23 20 21 21 19 20 11
19 19 20 21 21 21 21 20 20 21 21 20 17 15 12 8 6 6 5 12 13 8 10 12 15 17 24 24 25 32 31 30 28 22 26 20 23 25 27 23 21 22 13 9 12
20 20 21 22 22 23 23 22 21 20 20 17 14 11 8 11 4 4 8 9 10 10 10 10 12 15 21 23 28 26 30 33 29 27 26 28 27 22 29 26 25 24 23 20 19
20 20 21 22 22 22 23 23 22 21 20 15 10 10 11 6 3 7 9 8 7 10 11 11 9 15 11 17 24 25 28 28 28 29 33 25 28 30 32 27 28 28 25 22 23
22 22 22 23 24 24 23 23 24 20 15 9 6 11 7 3 8 8 11 10 9 7 10 12 13 16 20 20 27 19 21 26 35 28 28 27 34 34 29 29 31 29 27 23 26
24 24 24 24 24 25 26 26 25 13 7 6 8 8 5 8 4 11 10 10 11 13 11 7 14 16 15 18 19 21 26 30 32 29 29 28 35 34 33 30 27 29 28 26 27
23 24 24 24 25 25 27 29 9 7 8 9 10 8 6 6 12 12 10 10 12 10 12 13 13 13 14 15 21 24 26 29 30 27 29 31 34 33 30 30 27 32 31 26 29
24 24 23 23 23 25 21 5 5 8 14 12 11 9 8 12 11 7 5 10 9 11 12 12 14 14 17 16 22 24 28 32 29 25 28 29 31 36 30 27 27 26 23 30 30
27 26 25 24 23 25 12 6 6 7 10 12 12 10 10 7 10 9 5 12 12 14 15 13 16 17 18 15 20 24 26 30 29 30 23 22 27 34 27 29 29 28 28 28 25
28 26 25 23 22 12 5 6 7 9 7 3 5 7 5 6 12 12 10 11 14 17 14 16 17 21 17 17 19 20 23 25 27 24 28 25 29 30 26 27 25 28 29 28 27
30 28 23 20 8 4 2 5 8 5 6 10 9 3 6 7 17 6 11 10 13 17 19 16 15 16 16 21 17 21 20 21 26 21 21 28 21 27 26 25 27 27 23 24 24
31 30 21 8 9 3 7 9 9 4 5 5 4 5 7 10 8 11 3 12 18 18 17 19 20 20 22 21 17 22 19 21 23 25 24 30 20 22 22 27 27 27 29 29 28
33 28 15 6 6 5 7 7 5 7 1 4 2 5 11 12 6 8 9 13 18 17 18 20 14 21 19 20 18 15 17 20 21 20 22 26 26 24 22 23 21 20 21 23 23
34 24 8 10 5 6 7 7 6 6 4 1 6 11 15 14 10 6 11 14 13 10 15 20 16 8 16 16 18 16 14 12 16 16 19 23 25 21 24 29 25 22 24 11 15
35 21 9 9 7 6 7 9 8 7 10 10 10 16 16 3 8 10 14 13 11 8 13 9 12 4 12 9 20 17 17 13 17 16 19 26 26 21 24 24 16 19 15 14 11
39 6 7 4 5 6 9 7 5 8 8 10 14 13 8 8 10 15 11 12 6 11 12 13 9 20 18 9 7 18 17 21 21 25 18 20 29 31 30 19 14 16 10 7 11
8 6 4 2 5 7 8 9 9 2 10 11 14 9 14 17 13 12 10 7 7 11 11 10 18 18 15 10 17 16 15 13 6 19 23 18 22 19 30 19 15 10 3 9 7
6 5 6 2 5 8 6 10 10 7 10 7 11 16 17 15 15 17 10 14 9 9 14 16 17 19 17 15 16 1 6 8 8 12 12 16 12 15 27 29 19 5 2 4 7
5 4 4 3 6 4 7 6 6 8 8 8 10 15 14 15 17 19 20 14 8 13 15 18 14 16 22 23 13 13 13 19 4 12 18 11 17 16 12 21 13 4 4 6 5
6 5 4 2 3 7 11 13 10 8 11 7 8 15 14 16 13 13 18 17 14 13 7 11 6 10 17 16 16 7 9 13 8 9 15 8 9 18 23 17 11 9 12 12 8
5 4 3 0 3 7 12 11 9 6 10 8 9 15 15 16 15 14 21 19 11 13 19 12 14 18 17 20 8 5 19 13 11 6 14 18 17 20 4 15 12 8 14 12 11
2 4 4 4 7 10 11 14 11 10 4 6 10 11 12 14 20 23 20 23 16 18 17 4 11 19 24 28 23 17 20 13 17 20 21 20 13 14 25 29 9 9 12 11 12
5 5 9 11 9 6 10 11 11 9 16 17 15 16 14 16 19 28 27 24 15 5 6 10 8 15 21 23 25 23 22 18 19 25 24 23 20 14 21 20 14 11 11 12 8
3 3 4 8 6 7 5 11 14 17 13 12 14 17 20 20 20 24 24 26 21 12 6 3 6 8 19 20 22 19 22 19 20 23 22 22 20 16 17 18 15 13 11 12 6
Wind_Direction
345 343 342 338 335 332 329 326 321 316 314 315 314 313 313 317 307 274 252 30 351 328 311 272 259 247 229 246 234 227 245 249 249 251 249 260 245 243 253 244 214 193 6 78 123
344 341 338 335 332 329 325 321 317 314 312 314 313 311 310 314 297 263 88 21 324 312 297 278 251 232 227 233 236 230 233 237 249 257 256 256 263 261 240 229 244 222 102 134 166
341 338 336 334 332 329 325 321 318 315 314 313 311 307 305 309 274 92 133 329 301 293 277 276 273 265 236 229 225 236 240 246 244 250 258 252 252 249 262 224 225 203 188 180 169
339 337 335 333 330 327 324 320 318 314 311 307 304 303 304 284 342 93 163 274 283 281 275 262 244 245 242 234 233 230 242 247 259 274 263 241 251 261 245 245 249 222 199 190 184
339 337 333 332 329 326 323 320 319 315 310 305 302 303 295 229 51 97 223 248 288 306 272 265 260 248 243 245 241 240 244 249 254 254 267 267 242 253 260 246 245 260 254 234 230
340 336 333 332 328 325 322 319 318 315 307 296 292 297 260 260 22 308 312 300 291 300 304 267 259 267 275 259 248 253 250 254 253 253 250 247 249 251 250 257 249 245 251 235 240
338 335 331 328 325 321 317 315 315 311 301 295 283 266 269 34 305 310 272 310 273 295 284 302 294 270 262 254 256 262 266 267 258 242 244 246 245 242 249 252 247 245 244 247 246
338 335 332 329 324 320 316 313 310 303 289 284 261 264 285 84 329 301 326 316 321 230 264 283 285 272 266 267 283 276 256 248 243 243 244 234 253 245 247 246 246 249 248 243 247
338 334 332 327 323 318 313 308 303 282 242 241 235 234 237 138 302 340 319 315 307 295 258 250 274 270 255 242 254 247 247 240 253 239 242 236 246 247 251 256 247 244 247 244 251
335 331 328 323 318 314 309 296 299 189 216 210 257 257 218 335 343 315 291 310 306 300 275 236 247 244 234 237 240 244 242 245 256 252 226 242 238 244 246 248 250 255 261 249 246
335 331 325 320 315 309 313 221 222 202 235 291 318 292 299 334 310 303 328 298 266 266 267 269 243 256 265 255 256 267 275 276 269 252 239 254 240 247 240 241 249 253 257 238 249
339 333 326 319 313 306 293 1 35 335 297 280 256 261 274 284 287 315 283 296 309 294 297 270 245 256 257 276 282 275 270 262 266 272 276 263 255 256 252 242 238 244 250 254 260
338 333 325 317 313 294 330 30 337 336 267 178 219 247 290 274 288 303 297 301 292 296 283 278 289 302 287 263 271 269 265 272 273 267 264 256 262 262 251 253 254 251 251 252 251
335 333 325 314 298 349 196 354 311 341 273 134 204 154 251 299 265 302 289 269 290 290 294 284 282 275 282 278 261 272 274 264 266 266 257 248 257 244 248 246 246 248 246 251 255
335 334 325 277 320 289 356 320 333 237 267 110 151 40 257 268 297 285 296 276 284 293 295 288 290 282 274 266 264 271 275 266 260 255 258 251 257 254 248 238 240 237 239 240 241
334 333 325 206 238 12 312 336 247 231 346 165 268 278 295 304 279 285 279 258 262 264 265 269 273 298 266 278 267 281 283 268 265 253 249 250 248 247 243 258 265 254 253 247 245
330 329 279 310 346 343 312 253 250 285 124 89 322 312 310 293 320 318 303 297 285 299 298 310 282 291 264 255 252 253 259 261 249 242 249 256 251 243 249 244 263 247 241 250 261
325 320 209 280 315 319 279 258 279 358 316 356 308 305 276 305 303 289 297 293 314 303 305 309 301 35 287 276 275 258 250 257 264 254 250 230 248 252 249 259 273 297 268 267 264
317 213 237 174 304 292 275 264 293 347 352 324 308 296 316 315 330 305 298 309 328 320 313 302 301 309 314 292 290 275 251 256 267 270 273 278 278 221 251 226 227 238 219 251 273
312 283 225 48 280 278 264 279 291 330 310 304 301 291 311 325 316 314 312 320 297 296 300 296 299 303 309 292 255 233 258 243 224 255 260 260 261 222 215 227 217 196 239 274 296
263 268 92 323 268 252 281 303 328 344 310 296 299 306 308 307 310 306 286 290 301 315 309 295 286 296 285 263 274 23 280 274 298 248 266 258 298 230 202 205 220 107 334 356 298
305 274 79 318 261 211 264 3 312 296 289 283 280 289 296 304 307 295 292 284 287 302 299 297 304 277 276 287 228 271 200 218 218 262 242 282 271 298 101 127 111 61 6 28 49
304 291 121 329 302 329 308 315 291 284 304 301 296 300 308 297 300 288 292 306 313 306 300 327 271 287 279 256 227 266 234 230 258 262 264 266 269 322 113 108 89 25 343 49 93
293 301 122 228 266 304 332 317 329 324 297 329 301 301 286 286 285 281 277 287 1 319 320 321 273 264 270 293 96 303 283 268 234 266 271 259 266 294 296 135 107 39 343 2 64
316 40 347 312 330 326 306 293 296 300 311 277 284 272 306 304 304 295 300 305 290 264 253 254 260 268 270 275 275 265 263 257 267 261 249 270 281 263 287 295 13 12 325 325 81
337 351 353 295 307 347 300 305 317 326 323 304 285 311 320 288 278 287 291 295 299 286 251 211 244 257 266 269 273 269 265 254 259 271 274 275 269 258 257 269 299 317 326 310 55
25 346 307 309 289 291 313 322 323 319 303 317 317 301 293 298 304 296 294 285 280 253 204 233 221 239 257 258 257 262 248 246 248 261 264 267 273 270 268 275 284 288 291 297 327